E7874 Weather Reports


time (UTC)temp
C
wind
direction
speed
KPH
gust
KPH
rain 1hr
cm
rain 24hr
cm
rain mn
cm
humidity
%
barometer
mb
20260507082528 18 316 6.4 9.7 0.00 0.36 0.36 75 1014.5
20260507081428 18 301 4.8 14.5 0.00 0.36 0.36 75 1014.4
20260507080931 18 340 1.6 14.5 0.00 0.36 0.36 76 1014.3
20260507080416 18 344 0.0 0.0 0.00 0.36 0.36 79 1014.3
20260507075913 18 331 0.0 0.0 0.00 0.36 0.36 79 1014.2
20260507075415 18 11 0.0 0.0 0.00 0.36 0.36 79 1014.2
20260507074905 18 11 0.0 0.0 0.00 0.36 0.36 78 1014.3
20260507074407 17 11 0.0 0.0 0.00 0.36 0.36 80 1014.3
20260507073904 17 11 0.0 0.0 0.00 0.36 0.36 80 1014.3
20260507073406 17 11 0.0 0.0 0.00 0.36 0.36 84 1014.3
20260507072903 16 11 0.0 0.0 0.00 0.36 0.36 82 1014.3
20260507072354 16 10 0.0 0.0 0.00 0.36 0.36 83 1014.4
20260507071856 16 10 0.0 0.0 0.00 0.36 0.36 86 1014.4
20260507071352 16 9 0.0 0.0 0.00 0.36 0.36 85 1014.4
20260507070843 16 9 0.0 0.0 0.00 0.36 0.36 85 1014.4
20260507070347 16 9 0.0 0.0 0.00 0.36 0.36 87 1014.4
20260507065840 15 11 0.0 0.0 0.00 0.36 0.36 86 1014.3
20260507065341 15 11 0.0 0.0 0.00 0.36 0.36 87 1014.3
20260507064842 15 11 0.0 0.0 0.00 0.36 0.36 88 1014.3
20260507064339 15 11 0.0 0.0 0.00 0.36 0.36 88 1014.3
20260507063838 15 11 0.0 0.0 0.00 0.36 0.36 89 1014.3
20260507063325 15 11 0.0 0.0 0.00 0.36 0.36 89 1014.3
20260507062822 15 11 0.0 0.0 0.00 0.36 0.36 89 1014.2
20260507062317 15 11 0.0 0.0 0.00 0.36 0.36 90 1014.1
20260507061817 15 11 0.0 0.0 0.00 0.36 0.36 90 1014.1
20260507061318 15 11 0.0 0.0 0.00 0.36 0.36 90 1014.2
20260507060815 14 11 0.0 0.0 0.00 0.36 0.36 90 1014.0
20260507060425 14 11 0.0 0.0 0.00 0.36 0.36 90 1014.0
20260507054735 14 11 0.0 0.0 0.00 0.36 0.36 92 1013.9
20260507054226 14 11 0.0 0.0 0.00 0.36 0.36 93 1013.9
20260507053758 13 11 0.0 0.0 0.00 0.36 0.36 94 1013.9
20260507052703 13 63 0.0 0.0 0.00 0.36 0.36 94 1013.7
20260507052150 13 63 0.0 0.0 0.00 0.36 0.36 94 1013.7
20260507051645 12 122 0.0 0.0 0.00 0.36 0.36 93 1013.7
20260507051133 12 123 0.0 0.0 0.00 0.36 0.36 93 1013.7
20260507050628 12 138 0.0 0.0 0.00 0.36 0.36 94 1013.8
20260507050118 12 138 0.0 0.0 0.00 0.36 0.36 94 1013.8
20260507045716 12 138 0.0 0.0 0.00 0.36 0.36 94 1013.8
20260507044553 12 138 0.0 0.0 0.00 0.36 0.36 93 1013.7
20260507044142 12 138 0.0 0.0 0.00 0.36 0.36 93 1013.6
20260507043758 12 139 0.0 0.0 0.00 0.36 0.36 93 1013.6
20260507042126 12 139 0.0 0.0 0.00 0.36 0.36 93 1013.5
20260507041019 12 139 0.0 0.0 0.00 0.36 0.36 93 1013.5
20260507040516 12 138 0.0 0.0 0.00 0.36 0.36 93 1013.5
20260507040015 12 138 0.0 0.0 0.00 0.36 0.36 93 1013.4
20260507035524 12 138 0.0 0.0 0.00 0.36 0.36 93 1013.5
20260507035107 12 138 0.0 0.0 0.00 0.36 0.36 93 1013.4
20260507034004 12 138 0.0 0.0 0.03 0.36 0.36 92 1013.4
20260507033503 12 138 0.0 0.0 0.05 0.36 0.36 92 1013.5
20260507033056 12 138 0.0 0.0 0.05 0.36 0.36 92 1013.5
20260507031959 12 138 0.0 0.0 0.05 0.36 0.36 93 1013.4
20260507031458 12 138 0.0 0.0 0.05 0.36 0.36 93 1013.4
20260507030957 12 138 0.0 0.0 0.05 0.36 0.36 93 1013.5
20260507030439 12 138 0.0 0.0 0.05 0.36 0.36 92 1013.5
20260507030033 12 139 0.0 0.0 0.05 0.36 0.36 92 1013.4
20260507024933 12 138 0.0 0.0 0.05 0.36 0.36 92 1013.4
20260507024430 12 139 0.0 0.0 0.05 0.33 0.33 91 1013.4
20260507023927 12 139 0.0 0.0 0.05 0.33 0.33 91 1013.4
20260507023430 13 139 0.0 0.0 0.03 0.33 0.33 91 1013.4
20260507022925 13 139 0.0 0.0 0.03 0.33 0.33 91 1013.4
20260507022424 13 138 0.0 0.0 0.03 0.33 0.33 91 1013.4
20260507021924 13 139 0.0 0.0 0.00 0.30 0.30 91 1013.3
20260507021510 13 139 0.0 0.0 0.00 0.30 0.30 91 1013.4
20260507020407 13 138 0.0 0.0 0.03 0.30 0.30 91 1013.5
20260507015858 13 139 0.0 0.0 0.03 0.30 0.30 91 1013.5
20260507015349 13 139 0.0 0.0 0.03 0.30 0.30 91 1013.4
20260507014849 13 126 0.0 0.0 0.03 0.30 0.30 91 1013.4
20260507014347 13 126 0.0 0.0 0.03 0.30 0.30 91 1013.4
20260507013846 13 126 0.0 0.0 0.03 0.30 0.30 91 1013.4
20260507013343 13 108 0.0 0.0 0.05 0.30 0.30 91 1013.4
20260507012849 13 89 0.0 0.0 0.05 0.30 0.30 92 1013.4
20260507012343 13 55 0.0 0.0 0.05 0.30 0.30 92 1013.3
20260507011843 13 19 0.0 0.0 0.05 0.30 0.30 92 1013.3
20260507011339 13 19 0.0 0.0 0.08 0.30 0.30 92 1013.3
20260507010839 13 19 0.0 0.0 0.08 0.28 0.28 92 1013.4
20260507010340 13 19 0.0 0.0 0.08 0.28 0.28 92 1013.4
20260507005836 13 19 0.0 0.0 0.08 0.28 0.28 92 1013.4
20260507005336 13 19 0.0 0.0 0.08 0.28 0.28 92 1013.5
20260507004925 13 67 0.0 0.0 0.10 0.28 0.28 92 1013.4
20260507003836 13 132 0.0 0.0 0.10 0.28 0.28 91 1013.3
20260507003335 13 155 0.0 0.0 0.08 0.25 0.25 91 1013.3
20260507002831 13 155 0.0 0.0 0.08 0.25 0.25 91 1013.3
20260507002323 13 155 0.0 0.0 0.10 0.25 0.25 91 1013.3
20260507001823 13 210 0.0 0.0 0.08 0.23 0.23 91 1013.3
20260507001327 13 212 0.0 0.0 0.08 0.23 0.23 91 1013.5
20260507000847 13 212 0.0 0.0 0.08 0.20 0.20 91 1013.5
20260507000456 13 212 0.0 0.0 0.13 0.20 0.20 91 1013.5
20260506234806 13 142 0.0 0.0 0.18 0.18 0.18 90 1013.4
20260506234304 13 142 0.0 0.0 0.18 0.18 0.18 90 1013.4
20260506233809 13 142 0.0 0.0 0.18 0.18 0.18 89 1013.5
20260506233312 13 143 0.0 0.0 0.18 0.18 0.18 89 1013.4
20260506232759 13 172 0.0 0.0 0.18 0.18 0.18 89 1013.5
20260506232251 13 202 0.0 0.0 0.15 0.15 0.15 89 1013.6
20260506231748 13 202 0.0 0.0 0.15 0.15 0.15 89 1013.6
20260506231246 13 202 0.0 0.0 0.15 0.15 0.15 88 1013.7
20260506230739 13 202 0.0 0.0 0.10 0.10 0.13 88 1013.6
20260506230231 13 202 0.0 0.0 0.08 0.08 0.08 89 1013.7
20260506225729 13 139 0.0 0.0 0.05 0.05 0.05 89 1013.7
20260506225230 13 139 0.0 0.0 0.03 0.03 0.05 88 1013.7
20260506224726 13 139 0.0 0.0 0.00 0.00 0.00 87 1013.7
20260506224224 13 139 0.0 0.0 0.00 0.00 0.00 87 1013.7
20260506223725 13 150 0.0 0.0 0.00 0.00 0.00 87 1013.6
20260506223224 13 142 0.0 0.0 0.00 0.00 0.00 87 1013.6
20260506222718 13 140 0.0 0.0 0.00 0.00 0.00 86 1013.6
20260506222220 14 163 0.0 0.0 0.00 0.00 0.00 85 1013.6
20260506221716 14 180 0.0 0.0 0.00 0.00 0.00 85 1013.6
20260506221208 14 186 0.0 0.0 0.00 0.00 0.00 84 1013.5
20260506220656 14 141 3.2 12.9 0.00 0.00 0.00 83 1013.5
20260506220155 14 132 3.2 14.5 0.00 0.00 0.00 82 1013.4
20260506215657 14 130 1.6 14.5 0.00 0.00 0.00 82 1013.4
20260506215156 15 146 3.2 12.9 0.00 0.00 0.00 81 1013.5
20260506214655 15 154 8.0 22.5 0.00 0.00 0.00 80 1013.4
20260506214146 15 139 11.3 22.5 0.00 0.00 0.00 80 1013.3
20260506213650 15 140 4.8 20.9 0.00 0.00 0.00 79 1013.3
20260506213148 15 146 0.0 9.7 0.00 0.00 0.00 80 1013.4
20260506212645 15 134 0.0 0.0 0.00 0.00 0.00 82 1013.4
20260506212138 15 134 0.0 0.0 0.00 0.00 0.00 81 1013.4
20260506211634 15 134 0.0 0.0 0.00 0.00 0.00 81 1013.4
20260506211137 15 134 0.0 0.0 0.00 0.00 0.00 80 1013.3
20260506210738 15 138 0.0 4.8 0.00 0.00 0.00 79 1013.3
20260506210341 15 131 1.6 14.5 0.00 0.00 0.00 80 1013.2
20260506205926 15 157 0.0 14.5 0.00 0.00 0.00 81 1013.2
20260506204905 15 139 0.0 0.0 0.00 0.00 0.00 81 1013.2
20260506203819 15 128 0.0 0.0 0.00 0.00 0.00 82 1013.2
20260506203414 15 157 0.0 9.7 0.00 0.00 0.00 82 1013.2
20260506202953 15 165 0.0 9.7 0.00 0.00 0.00 82 1013.1
20260506201805 15 173 4.8 16.1 0.00 0.00 0.00 82 1013.1
20260506200001 15 150 0.0 0.0 0.00 0.00 0.00 83 1013.2
20260506195502 15 140 4.8 14.5 0.00 0.00 0.00 83 1013.3
20260506194944 15 160 8.0 20.9 0.00 0.00 0.00 83 1013.3
20260506194434 15 153 4.8 20.9 0.00 0.00 0.00 84 1013.3
20260506193925 15 142 0.0 14.5 0.00 0.00 0.00 85 1013.3
20260506193432 15 208 3.2 20.9 0.00 0.00 0.00 85 1013.4
20260506192926 15 142 9.7 22.5 0.00 0.00 0.00 85 1013.3
20260506192428 15 198 11.3 22.5 0.00 0.00 0.00 84 1013.3
20260506191909 15 184 9.7 20.9 0.00 0.00 0.00 84 1013.2
20260506191408 15 147 8.0 17.7 0.00 0.00 0.00 84 1013.3
20260506190856 15 186 6.4 19.3 0.00 0.00 0.00 83 1013.3
20260506190357 15 151 3.2 19.3 0.00 0.00 0.00 83 1013.2
20260506185859 15 163 4.8 19.3 0.00 0.00 0.00 83 1013.1
20260506185409 15 162 11.3 22.5 0.00 0.00 0.00 82 1013.0
20260506184858 15 182 11.3 22.5 0.00 0.00 0.00 82 1012.9
20260506184458 15 183 11.3 27.4 0.00 0.00 0.00 83 1012.8
20260506184054 15 190 12.9 27.4 0.00 0.00 0.00 83 1012.8
20260506182343 15 165 16.1 30.6 0.00 0.00 0.00 82 1012.7
20260506181842 15 158 16.1 30.6 0.00 0.00 0.00 81 1012.7
20260506181339 16 150 16.1 27.4 0.00 0.00 0.00 80 1012.7
20260506180920 16 145 16.1 27.4 0.00 0.00 0.00 79 1012.6
20260506175826 16 159 4.8 22.5 0.00 0.00 0.00 77 1012.5
20260506175330 16 177 4.8 17.7 0.00 0.00 0.00 78 1012.5
20260506174831 16 173 4.8 14.5 0.00 0.00 0.00 77 1012.5
20260506174329 16 129 6.4 24.1 0.00 0.00 0.00 76 1012.4
20260506173826 16 164 9.7 24.1 0.00 0.00 0.00 74 1012.4
20260506173317 16 151 9.7 20.9 0.00 0.00 0.00 72 1012.4
20260506172818 17 198 6.4 17.7 0.00 0.00 0.00 72 1012.4
20260506172320 17 167 6.4 19.3 0.00 0.00 0.00 72 1012.3
20260506171814 17 147 8.0 19.3 0.00 0.00 0.00 72 1012.3
20260506171318 17 154 6.4 17.7 0.00 0.00 0.00 72 1012.3
20260506170806 17 157 4.8 16.1 0.00 0.00 0.00 72 1012.2
20260506170307 17 140 6.4 16.1 0.00 0.00 0.00 72 1012.3
20260506165805 17 181 9.7 16.1 0.00 0.00 0.00 72 1012.2
20260506165312 17 155 11.3 17.7 0.00 0.00 0.00 71 1012.2
20260506164806 17 136 11.3 20.9 0.00 0.00 0.00 70 1012.2
20260506164324 17 155 12.9 24.1 0.00 0.00 0.00 70 1012.2
20260506163944 17 182 12.9 24.1 0.00 0.00 0.00 69 1012.1
20260506163007 17 164 12.9 19.3 0.00 0.00 0.00 68 1012.1
20260506162007 17 172 11.3 24.1 0.00 0.00 0.00 68 1012.3
20260506161556 17 190 11.3 25.7 0.00 0.00 0.00 68 1012.2
20260506155238 18 165 16.1 30.6 0.00 0.00 0.00 66 1012.2
20260506154736 18 153 16.1 29.0 0.00 0.00 0.00 66 1012.2
20260506154236 18 173 17.7 29.0 0.00 0.00 0.00 67 1012.3
20260506153731 18 174 17.7 33.8 0.00 0.00 0.00 66 1012.3
20260506153213 18 195 17.7 32.2 0.00 0.00 0.00 66 1012.2
20260506152754 18 183 17.7 35.4 0.00 0.00 0.00 66 1012.0
20260506152324 18 201 16.1 35.4 0.00 0.00 0.00 66 1012.0
20260506151202 18 189 17.7 29.0 0.00 0.00 0.00 65 1012.0
20260506150706 18 194 17.7 32.2 0.00 0.00 0.00 65 1011.8
20260506150250 18 180 17.7 32.2 0.00 0.00 0.00 65 1011.9
20260506145139 19 199 17.7 35.4 0.00 0.00 0.00 64 1011.9
20260506144642 19 188 16.1 30.6 0.00 0.00 0.00 63 1012.0
20260506144221 19 169 16.1 29.0 0.00 0.00 0.00 64 1011.9
20260506143222 19 178 14.5 32.2 0.00 0.00 0.00 63 1011.9
20260506142204 19 192 14.5 35.4 0.00 0.00 0.00 63 1012.0
20260506141746 19 187 16.1 35.4 0.00 0.00 0.00 63 1012.0
20260506140106 19 190 16.1 32.2 0.00 0.00 0.00 60 1011.9
20260506135612 19 206 16.1 32.2 0.00 0.00 0.00 61 1012.0
20260506135153 19 181 16.1 30.6 0.00 0.00 0.00 60 1012.0
20260506134108 20 205 17.7 37.0 0.00 0.00 0.00 58 1012.0
20260506133559 20 179 14.5 33.8 0.00 0.00 0.00 57 1011.9
20260506133052 20 171 14.5 33.8 0.00 0.00 0.00 56 1011.9
20260506132555 20 170 16.1 32.2 0.00 0.00 0.00 56 1012.1
20260506132044 20 172 11.3 33.8 0.00 0.00 0.00 58 1012.2
20260506131549 20 190 4.8 20.9 0.00 0.00 0.00 55 1012.3
20260506131037 20 171 4.8 25.7 0.00 0.00 0.00 58 1012.3
20260506130535 20 175 6.4 25.7 0.00 0.00 0.00 57 1012.4
20260506130037 20 184 9.7 25.7 0.00 0.00 0.00 60 1012.5
20260506125533 19 167 14.5 25.7 0.00 0.00 0.00 57 1012.5
20260506125032 19 117 9.7 27.4 0.00 0.00 0.00 57 1012.5
20260506124613 19 186 11.3 27.4 0.00 0.00 0.00 58 1012.7
20260506124153 19 153 9.7 27.4 0.00 0.00 0.00 59 1012.7
20260506123105 19 153 9.7 30.6 0.00 0.00 0.00 60 1012.7
20260506122031 19 142 9.7 33.8 0.00 0.00 0.00 59 1012.7
20260506121526 19 187 9.7 33.8 0.00 0.00 0.00 60 1012.8
20260506121025 19 157 8.0 27.4 0.00 0.00 0.00 60 1012.7
20260506120513 20 182 8.0 24.1 0.00 0.00 0.00 58 1012.7
20260506120016 20 146 8.0 27.4 0.00 0.00 0.00 59 1012.7
20260506115512 19 184 12.9 33.8 0.00 0.00 0.00 59 1012.7
20260506115014 20 165 14.5 33.8 0.00 0.00 0.00 58 1012.8
20260506114512 19 167 11.3 27.4 0.00 0.00 0.00 62 1012.8
20260506114010 19 159 9.7 32.2 0.00 0.00 0.00 63 1012.8
20260506113509 19 153 6.4 32.2 0.00 0.00 0.00 61 1012.8
20260506113002 19 179 4.8 14.5 0.00 0.00 0.00 61 1012.8
20260506112605 19 165 6.4 22.5 0.00 0.00 0.00 61 1012.9
20260506111500 19 166 9.7 30.6 0.00 0.00 0.00 57 1012.8
20260506110950 19 165 11.3 27.4 0.00 0.00 0.00 56 1012.9
20260506110446 19 195 14.5 30.6 0.00 0.00 0.00 57 1012.9
20260506105950 19 163 12.9 30.6 0.00 0.00 0.00 55 1012.8
20260506105548 19 188 9.7 25.7 0.00 0.00 0.00 57 1012.8
20260506104602 19 176 16.1 33.8 0.00 0.00 0.00 51 1012.8
20260506103627 20 161 9.7 27.4 0.00 0.00 0.00 52 1012.8
20260506101935 20 196 8.0 24.1 0.00 0.00 0.00 52 1013.0
20260506101022 21 194 3.2 14.5 0.00 0.00 0.00 51 1012.9
20260506095933 20 190 3.2 12.9 0.00 0.00 0.00 53 1012.8
20260506095534 20 178 6.4 14.5 0.00 0.00 0.00 53 1012.9
20260506094438 20 188 6.4 19.3 0.00 0.00 0.00 58 1012.7
20260506093921 20 182 8.0 14.5 0.00 0.00 0.00 60 1012.8
20260506093419 20 161 9.7 19.3 0.00 0.00 0.00 59 1012.8
20260506092921 19 167 9.7 19.3 0.00 0.00 0.00 62 1012.8
20260506092416 18 136 4.8 16.1 0.00 0.00 0.00 60 1012.9
20260506091916 18 188 0.0 11.3 0.00 0.00 0.00 62 1012.9
20260506091410 18 152 0.0 0.0 0.00 0.00 0.00 61 1012.9
20260506090930 18 187 0.0 0.0 0.00 0.00 0.00 61 1012.9
20260506090532 17 146 1.6 4.8 0.00 0.00 0.00 62 1013.0
20260506084834 17 155 11.3 24.1 0.00 0.00 0.00 63 1012.9
20260506084329 17 211 11.3 32.2 0.00 0.00 0.00 62 1012.8
20260506083904 17 212 11.3 32.2 0.00 0.00 0.00 60 1012.8